| time (UTC) | temp F | wind direction | speed knots | gust knots | rain 1hr in | rain 24hr in | rain mn in | humidity % | barometer mb |
| 20260503021555 | 40 | 230 | 4.3 | 0.0 | 0.00 | 0.00 | 0.00 | 64 | 989.6 |
| 20260503020123 | 41 | 236 | 5.2 | 0.0 | 0.00 | 0.00 | 0.00 | 64 | 989.6 |
| 20260503014553 | 41 | 239 | 6.1 | 0.0 | 0.00 | 0.00 | 0.00 | 51 | 989.4 |
| 20260503013112 | 42 | 243 | 6.1 | 0.0 | 0.00 | 0.00 | 0.00 | 51 | 989.4 |
| 20260503011553 | 42 | 241 | 4.3 | 0.0 | 0.00 | 0.00 | 0.00 | 51 | 989.4 |
| 20260503010122 | 43 | 244 | 5.2 | 0.0 | 0.00 | 0.00 | 0.00 | 51 | 989.4 |
| 20260503004553 | 44 | 251 | 5.2 | 0.0 | 0.00 | 0.00 | 0.00 | 37 | 990.1 |
| 20260503003107 | 45 | 246 | 4.3 | 0.0 | 0.00 | 0.00 | 0.00 | 36 | 990.3 |
| 20260503001553 | 46 | 265 | 3.5 | 0.0 | 0.00 | 0.00 | 0.00 | 36 | 990.3 |
| 20260503000126 | 47 | 279 | 4.3 | 0.0 | 0.00 | 0.00 | 0.00 | 36 | 990.3 |
| 20260502234554 | 48 | 286 | 6.1 | 0.0 | 0.00 | 0.00 | 0.00 | 33 | 990.0 |
| 20260502233106 | 48 | 280 | 7.0 | 0.0 | 0.00 | 0.00 | 0.00 | 34 | 990.1 |
| 20260502231554 | 48 | 275 | 7.8 | 0.0 | 0.00 | 0.00 | 0.00 | 34 | 990.1 |
| 20260502230121 | 48 | 275 | 8.7 | 0.0 | 0.00 | 0.00 | 0.00 | 34 | 990.1 |
| 20260502224554 | 49 | 276 | 8.7 | 0.0 | 0.00 | 0.00 | 0.00 | 34 | 990.5 |
| 20260502223113 | 49 | 271 | 8.7 | 0.0 | 0.00 | 0.00 | 0.00 | 33 | 991.2 |
| 20260502221555 | 49 | 271 | 9.6 | 0.0 | 0.00 | 0.00 | 0.00 | 33 | 991.2 |
| 20260502220121 | 49 | 271 | 9.6 | 0.0 | 0.00 | 0.00 | 0.00 | 33 | 991.2 |
| 20260502214555 | 49 | 273 | 10.4 | 0.0 | 0.00 | 0.00 | 0.00 | 33 | 991.4 |
| 20260502213113 | 49 | 275 | 9.6 | 0.0 | 0.00 | 0.00 | 0.00 | 35 | 991.1 |
| 20260502211555 | 49 | 272 | 9.6 | 0.0 | 0.00 | 0.00 | 0.00 | 35 | 991.0 |
| 20260502210123 | 49 | 271 | 9.6 | 0.0 | 0.00 | 0.00 | 0.00 | 35 | 991.0 |
| 20260502204554 | 49 | 269 | 8.7 | 0.0 | 0.00 | 0.00 | 0.00 | 33 | 991.5 |
| 20260502203113 | 49 | 270 | 8.7 | 0.0 | 0.00 | 0.00 | 0.00 | 33 | 991.8 |
| 20260502201554 | 49 | 272 | 8.7 | 0.0 | 0.00 | 0.00 | 0.00 | 33 | 991.8 |
| 20260502200121 | 49 | 272 | 9.6 | 0.0 | 0.00 | 0.00 | 0.00 | 33 | 991.8 |
| 20260502194554 | 49 | 271 | 9.6 | 0.0 | 0.00 | 0.00 | 0.00 | 29 | 992.2 |
| 20260502193108 | 49 | 273 | 9.6 | 0.0 | 0.00 | 0.00 | 0.00 | 29 | 992.2 |
| 20260502191554 | 49 | 276 | 9.6 | 0.0 | 0.00 | 0.00 | 0.00 | 29 | 992.2 |
| 20260502190122 | 49 | 276 | 9.6 | 0.0 | 0.00 | 0.00 | 0.00 | 29 | 992.2 |
| 20260502184554 | 48 | 278 | 9.6 | 0.0 | 0.00 | 0.00 | 0.00 | 39 | 992.2 |
| 20260502183113 | 48 | 287 | 9.6 | 0.0 | 0.00 | 0.00 | 0.00 | 42 | 992.2 |
| 20260502181553 | 48 | 286 | 9.6 | 0.0 | 0.00 | 0.00 | 0.00 | 42 | 992.2 |
| 20260502180127 | 47 | 282 | 9.6 | 0.0 | 0.00 | 0.00 | 0.00 | 42 | 992.2 |
| 20260502170118 | 47 | 286 | 7.0 | 0.0 | 0.00 | 0.00 | 0.00 | 38 | 992.7 |
| 20260502163114 | 46 | 284 | 7.0 | 0.0 | 0.00 | 0.00 | 0.00 | 41 | 991.4 |
| 20260502161554 | 45 | 282 | 7.0 | 0.0 | 0.00 | 0.00 | 0.00 | 41 | 991.4 |
| 20260502160124 | 45 | 283 | 7.0 | 0.0 | 0.00 | 0.00 | 0.00 | 41 | 991.4 |
| 20260502151555 | 43 | 292 | 6.1 | 0.0 | 0.00 | 0.00 | 0.00 | 50 | 991.8 |
| 20260502150127 | 42 | 289 | 6.1 | 0.0 | 0.00 | 0.00 | 0.00 | 50 | 991.8 |
| 20260502130122 | 37 | 338 | 4.3 | 0.0 | 0.00 | 0.00 | 0.00 | 69 | 992.2 |
| 20260502123112 | 35 | 324 | 3.5 | 0.0 | 0.00 | 0.00 | 0.00 | 80 | 992.4 |
| 20260502121554 | 34 | 326 | 3.5 | 0.0 | 0.00 | 0.00 | 0.00 | 80 | 992.4 |
| 20260502120135 | 33 | 319 | 3.5 | 0.0 | 0.00 | 0.00 | 0.00 | 80 | 992.4 |
| 20260502114554 | 33 | 320 | 2.6 | 0.0 | 0.00 | 0.00 | 0.00 | 84 | 992.4 |
| 20260502113116 | 32 | 304 | 1.7 | 0.0 | 0.00 | 0.00 | 0.00 | 84 | 992.1 |
| 20260502111554 | 31 | 304 | 1.7 | 0.0 | 0.00 | 0.00 | 0.00 | 84 | 992.1 |
| 20260502110123 | 31 | 297 | 1.7 | 0.0 | 0.00 | 0.00 | 0.00 | 84 | 992.1 |
| 20260502104554 | 31 | 283 | 1.7 | 0.0 | 0.00 | 0.00 | 0.00 | 84 | 991.9 |
| 20260502103112 | 31 | 286 | 2.6 | 0.0 | 0.00 | 0.00 | 0.00 | 88 | 992.1 |
| 20260502101554 | 31 | 290 | 2.6 | 0.0 | 0.00 | 0.00 | 0.00 | 88 | 992.1 |
| 20260502100123 | 31 | 291 | 2.6 | 0.0 | 0.00 | 0.00 | 0.00 | 88 | 992.1 |
| 20260502090123 | 31 | 298 | 2.6 | 0.0 | 0.00 | 0.00 | 0.00 | 86 | 991.7 |
| 20260502070123 | 32 | 332 | 3.5 | 0.0 | 0.00 | 0.00 | 0.00 | 80 | 991.0 |
| 20260502064554 | 32 | 323 | 3.5 | 0.0 | 0.00 | 0.00 | 0.00 | 70 | 992.0 |
| 20260502063114 | 32 | 317 | 3.5 | 0.0 | 0.00 | 0.00 | 0.00 | 72 | 991.9 |
| 20260502061553 | 32 | 317 | 3.5 | 0.0 | 0.00 | 0.00 | 0.00 | 72 | 991.9 |
| 20260502060137 | 33 | 323 | 3.5 | 0.0 | 0.00 | 0.00 | 0.00 | 72 | 991.9 |
| 20260502054554 | 33 | 329 | 3.5 | 0.0 | 0.00 | 0.00 | 0.00 | 64 | 991.3 |
| 20260502053113 | 33 | 330 | 3.5 | 0.0 | 0.00 | 0.00 | 0.00 | 69 | 991.7 |
| 20260502051553 | 33 | 326 | 4.3 | 0.0 | 0.00 | 0.00 | 0.00 | 69 | 991.7 |
| 20260502050125 | 33 | 337 | 4.3 | 0.0 | 0.00 | 0.00 | 0.00 | 69 | 991.7 |
| 20260502044555 | 34 | 335 | 4.3 | 0.0 | 0.00 | 0.00 | 0.00 | 67 | 991.2 |
| 20260502043111 | 34 | 336 | 5.2 | 0.0 | 0.00 | 0.00 | 0.00 | 69 | 991.4 |
| 20260502041553 | 34 | 338 | 5.2 | 0.0 | 0.00 | 0.00 | 0.00 | 69 | 991.3 |
| 20260502040124 | 34 | 335 | 6.1 | 0.0 | 0.00 | 0.00 | 0.00 | 69 | 991.3 |
| 20260502034553 | 35 | 336 | 6.1 | 0.0 | 0.00 | 0.00 | 0.00 | 66 | 991.0 |
| 20260502033113 | 35 | 337 | 4.3 | 0.0 | 0.00 | 0.00 | 0.00 | 65 | 990.3 |
| 20260502031553 | 35 | 338 | 5.2 | 0.0 | 0.00 | 0.00 | 0.00 | 65 | 990.3 |
| 20260502030123 | 35 | 333 | 6.1 | 0.0 | 0.00 | 0.00 | 0.00 | 65 | 990.3 |
| 20260502024552 | 36 | 329 | 6.1 | 0.0 | 0.00 | 0.00 | 0.00 | 59 | 990.0 |
| 20260502023111 | 36 | 325 | 6.1 | 0.0 | 0.00 | 0.00 | 0.00 | 64 | 990.9 |